Tracking 31027 objects as of 19-Jul-2025
HD Live streaming from Space Station
objects crossing your sky now

FENGYUN 1C DEB

Track FENGYUN 1C DEB now!
10-day predictions


NORAD ID: 32316
Int'l Code: 1999-025CXH
Perigee: 711.0 km
Apogee: 753.2 km
Inclination: 99.5 °
Period: 99.3 minutes
Semi major axis: 7103 km
RCS: 0.0087 m2 (small)
Launch date: May 10, 1999
Source: People's Republic of China (PRC)
Launch site: Taiyaun Space Center, China (TSC)

Note: This is SATELLITE DEBRIS
Your satellite tracking list
COSMOS 1656
Track 1 satellite(s)




NASA's NSSDC Master Catalog

Two Line Element Set (TLE):
1 32316U 99025CXH 25198.48981240  .00004706  00000-0  12166-2 0  9996
2 32316  99.5360 205.3463 0029733  50.7404 101.7279 14.50209655936277
Source of the keplerian elements: AFSPC